This demonstration page uses our WeatherBlox Daily Observations layout. Learn more.

Left ArrowRight Arrow

39.92423, -83.80882

Hourly Observations for August 29, 2016

Temp ( °F °C ) Dew Point ( °F °C ) Humidity (%) Winds ( mph kmh ) Pressure ( in mb ) Visibility ( mi km ) Precip ( " mm )
12:56 am 00:56 Clear 69 20.6 67 19.4 93 93 NNW 13 20 30.2 1023 10 16.0934 N/A
1:56 am 01:56 Clear 69 20.6 67 19.4 93 93 N N/A 30.19 1023 10 16.0934 N/A
3:56 am 03:56 Clear 66 18.9 65 18.3 96 96 NE 6 9 30.18 1022 10 16.0934 N/A
4:56 am 04:56 Clear 66 18.9 66 18.9 100 100 NE 3 6 30.19 1022 10 16.0934 N/A
5:56 am 05:56 Clear 68 20 66 18.9 93 93 NNE 6 9 30.19 1022 10 16.0934 N/A
6:56 am 06:56 Clear 67 19.4 66 18.9 97 97 N N/A 30.21 1023 10 16.0934 N/A
7:56 am 07:56 Sunny 69 20.6 67 19.4 93 93 N N/A 30.22 1023 10 16.0934 N/A
8:56 am 08:56 Sunny 73 22.8 70 21.1 90 90 ENE 7 11 30.24 1024 10 16.0934 N/A
11:56 am 11:56 Sunny 82 27.8 71 21.7 69 69 E 8 13 30.24 1024 10 16.0934 N/A
12:56 pm 12:56 Mostly Sunny 83 28.3 72 22.2 70 70 ENE 5 7 30.24 1024 10 16.0934 N/A
1:56 pm 13:56 Partly Cloudy 83 28.3 71 21.7 67 67 E 7 11 30.24 1024 10 16.0934 N/A
2:56 pm 14:56 Partly Cloudy 85 29.4 71 21.7 63 63 VRB 6 9 30.22 1023 10 16.0934 N/A
3:56 pm 15:56 Partly Cloudy 85 29.4 71 21.7 63 63 E 6 9 30.19 1023 10 16.0934 N/A
4:56 pm 16:56 Mostly Sunny 85 29.4 71 21.7 63 63 NE 6 9 30.17 1022 10 16.0934 N/A
5:56 pm 17:56 Sunny 85 29.4 70 21.1 61 61 ENE 8 13 30.16 1022 10 16.0934 N/A
6:56 pm 18:56 Sunny 83 28.3 69 20.6 63 63 NE 7 11 30.16 1021 10 16.0934 N/A
7:56 pm 19:56 Sunny 78 25.6 69 20.6 74 74 NE 7 11 30.17 1022 10 16.0934 N/A
8:56 pm 20:56 Clear 75 23.9 69 20.6 82 82 ENE 6 9 30.18 1022 10 16.0934 N/A
9:56 pm 21:56 Clear 72 22.2 68 20 87 87 ENE 6 9 30.19 1022 10 16.0934 N/A
10:56 pm 22:56 Clear 71 21.7 68 20 90 90 E 5 7 30.18 1022 10 16.0934 N/A
11:56 pm 23:56 Clear 69 20.6 66 18.9 90 90 ENE 6 9 30.18 1022 10 16.0934 N/A

Powered by AerisWeather